User: anonymous   Login
Location: NJAA Observatory
(40.6819°N, 74.8979°W)
Time: 00:05:54
(UTC-04:00)
Language:

Cosmos 2237 Rocket - Orbit

View from above orbital plane
View from above orbital plane
View from above satellite
View from above satellite

Ground track
Ground track

The orbit data is extracted from the following two-line orbital elements,

1 22566U 93016B   15209.84998267 -.00000161  00000-0 -58684-4 0  9995
2 22566 071.0081 073.8329 0008034 104.7555 255.4458 14.14909462153769
Epoch (UTC): 28 July 2015 20:23:58
Eccentricity: 0.0008034
inclination: 71.0081°
perigee height: 837 km
apogee height: 848 km
right ascension of ascending node: 73.8329°
argument of perigee: 104.7555°
revolutions per day: 14.14909462
mean anomaly at epoch: 255.4458°
orbit number at epoch: 15376

The dashed part of the orbit path shows where the satellite is in the earth's shadow,  

DLR